Location: Berg
(47.2344°N, 9.5296°E)
Time: 21:00:19
(UTC+00:00)

Cosmos 1844 Rocket - Pass Details

Date: 24 January 2021
Orbit: 826 x 843 km, 71.0° (Epoch: 03 March)

Event Time Altitude Azimuth Distance (km) Brightness Sun altitude
Rises 16:58:55 0° 195° (SSW) 3,387 6.4 -8.1°
Reaches altitude 10° 17:01:22 10° 193° (SSW) 2,455 5.6 -8.5°
Maximum altitude 17:06:57 65° 112° (ESE) 923 2.7 -9.4°
Drops below altitude 10° 17:12:32 10° 32° (NNE) 2,464 4.7 -10.3°
Enters shadow 17:13:58 - 31° (NNE) 3,008 5.1 -10.5°
